PLT2202 SBGR-SBEG

Flight info

Callsign PLT2202
Flight time 3h 29m
Altitude 36000
Route GERTU UM417 EVRIV DCT PUDKA DCT MATNA DCT IRUMO
Aircraft B738/M-SDE2E3FGHIRWXY/LB1

Departure

Time 2026-04-21 14:44
Airport São Paulo/Guarulhos–Governor André Franco Montoro International Airport (SBGR)

Arrival

Time 2026-04-21 18:13
Airport Eduardo Gomes International Airport (SBEG)
Time Latitude Longitude Altitude Speed Heading
2026-04-21 14:07 -23.42506 -46.47350 2441 ft 0 kts 252°
2026-04-21 14:34 -23.42504 -46.47344 2441 ft 2 kts 252°
2026-04-21 14:34 -23.42499 -46.47328 2441 ft 2 kts 252°
2026-04-21 14:34 -23.42495 -46.47313 2441 ft 2 kts 252°
2026-04-21 14:35 -23.42490 -46.47297 2441 ft 2 kts 252°
2026-04-21 14:35 -23.42486 -46.47282 2441 ft 1 kts 252°
2026-04-21 14:35 -23.42483 -46.47272 2441 ft 2 kts 242°
2026-04-21 14:35 -23.42473 -46.47259 2440 ft 2 kts 219°
2026-04-21 14:36 -23.42461 -46.47251 2440 ft 2 kts 199°
2026-04-21 14:36 -23.42446 -46.47248 2440 ft 2 kts 179°
2026-04-21 14:36 -23.42436 -46.47249 2440 ft 0 kts 166°
2026-04-21 14:36 -23.42430 -46.47251 2440 ft 0 kts 163°
2026-04-21 14:38 -23.42432 -46.47250 2440 ft 3 kts 163°
2026-04-21 14:38 -23.42507 -46.47225 2441 ft 17 kts 163°
2026-04-21 14:39 -23.42650 -46.47180 2441 ft 25 kts 164°
2026-04-21 14:39 -23.42800 -46.47134 2443 ft 17 kts 175°
2026-04-21 14:39 -23.42874 -46.47237 2445 ft 21 kts 255°
2026-04-21 14:39 -23.42920 -46.47414 2445 ft 26 kts 253°
2026-04-21 14:40 -23.42974 -46.47615 2446 ft 27 kts 254°
2026-04-21 14:40 -23.43027 -46.47809 2447 ft 26 kts 254°
2026-04-21 14:40 -23.43084 -46.48019 2447 ft 31 kts 253°
2026-04-21 14:40 -23.43142 -46.48239 2446 ft 29 kts 253°
2026-04-21 14:41 -23.43196 -46.48378 2446 ft 13 kts 209°
2026-04-21 14:41 -23.43277 -46.48373 2447 ft 10 kts 163°
2026-04-21 14:41 -23.43297 -46.48366 2448 ft 0 kts 162°
2026-04-21 14:42 -23.43329 -46.48356 2449 ft 11 kts 162°
2026-04-21 14:43 -23.43406 -46.48298 2451 ft 16 kts 107°
2026-04-21 14:43 -23.43364 -46.48102 2452 ft 54 kts 73°
2026-04-21 14:43 -23.43184 -46.47435 2452 ft 127 kts 73°
2026-04-21 14:43 -23.42880 -46.46295 2483 ft 183 kts 75°
2026-04-21 14:44 -23.42534 -46.44945 3203 ft 189 kts 73°
2026-04-21 14:44 -23.42140 -46.43667 4285 ft 173 kts 70°
2026-04-21 14:44 -23.41754 -46.42470 4903 ft 176 kts 71°
2026-04-21 14:44 -23.41364 -46.41182 5477 ft 182 kts 72°
2026-04-21 14:45 -23.40991 -46.39880 6137 ft 182 kts 72°
2026-04-21 14:45 -23.40615 -46.38573 6762 ft 184 kts 73°
2026-04-21 14:45 -23.40217 -46.37209 7228 ft 195 kts 73°
2026-04-21 14:45 -23.39739 -46.35787 7657 ft 208 kts 64°
2026-04-21 14:46 -23.38974 -46.34378 8079 ft 224 kts 57°
2026-04-21 14:46 -23.38066 -46.32923 8509 ft 241 kts 58°
2026-04-21 14:46 -23.37129 -46.31374 8998 ft 255 kts 59°
2026-04-21 14:46 -23.36156 -46.29710 9523 ft 268 kts 59°
2026-04-21 14:47 -23.35141 -46.27951 10000 ft 281 kts 59°
2026-04-21 14:47 -23.34074 -46.26099 10547 ft 294 kts 59°
2026-04-21 14:47 -23.32961 -46.24175 11040 ft 308 kts 59°
2026-04-21 14:47 -23.31790 -46.22152 11510 ft 322 kts 59°
2026-04-21 14:48 -23.30584 -46.20071 11960 ft 336 kts 59°
2026-04-21 14:48 -23.29307 -46.17868 12365 ft 350 kts 59°
2026-04-21 14:48 -23.27991 -46.15601 12896 ft 360 kts 59°
2026-04-21 14:48 -23.26647 -46.13284 13557 ft 365 kts 59°
2026-04-21 14:49 -23.25292 -46.10954 14283 ft 367 kts 59°
2026-04-21 14:49 -23.23909 -46.08581 14989 ft 370 kts 59°
2026-04-21 14:49 -23.22465 -46.06270 15623 ft 375 kts 53°
2026-04-21 14:49 -23.20680 -46.04218 16235 ft 380 kts 39°
2026-04-21 14:50 -23.19173 -46.03154 16654 ft 384 kts 27°
2026-04-21 14:50 -23.15905 -46.01761 17392 ft 390 kts 15°
2026-04-21 14:50 -23.13225 -46.01462 17958 ft 393 kts 355°
2026-04-21 14:50 -23.10529 -46.02058 18544 ft 395 kts 339°
2026-04-21 14:51 -23.08045 -46.03373 19161 ft 396 kts 326°
2026-04-21 14:51 -23.05854 -46.05146 19712 ft 398 kts 317°
2026-04-21 14:51 -23.03916 -46.07281 20299 ft 398 kts 307°
2026-04-21 14:51 -23.02360 -46.09766 20885 ft 398 kts 296°
2026-04-21 14:52 -23.01252 -46.12497 21434 ft 398 kts 287°
2026-04-21 14:52 -23.00365 -46.15361 21988 ft 401 kts 289°
2026-04-21 14:52 -22.99175 -46.18089 22487 ft 407 kts 298°
2026-04-21 14:52 -22.97575 -46.20647 23019 ft 410 kts 305°
2026-04-21 14:53 -22.95755 -46.23087 23486 ft 415 kts 308°
2026-04-21 14:53 -22.93821 -46.25426 23944 ft 419 kts 311°
2026-04-21 14:53 -22.91854 -46.27726 24400 ft 422 kts 310°
2026-04-21 14:53 -22.89991 -46.30194 24850 ft 424 kts 303°
2026-04-21 14:54 -22.88421 -46.32896 25328 ft 425 kts 297°
2026-04-21 14:54 -22.87048 -46.35744 25788 ft 427 kts 295°
2026-04-21 14:54 -22.85762 -46.38679 26207 ft 430 kts 293°
2026-04-21 14:54 -22.84514 -46.41633 26668 ft 432 kts 293°
2026-04-21 14:55 -22.83273 -46.44579 27056 ft 435 kts 293°
2026-04-21 14:55 -22.81992 -46.47585 27501 ft 437 kts 294°
2026-04-21 14:55 -22.80711 -46.50550 27955 ft 438 kts 294°
2026-04-21 14:55 -22.79409 -46.53529 28389 ft 440 kts 294°
2026-04-21 14:56 -22.78083 -46.56536 28781 ft 442 kts 294°
2026-04-21 14:56 -22.76752 -46.59535 29129 ft 446 kts 294°
2026-04-21 14:56 -22.75409 -46.62548 29537 ft 448 kts 294°
2026-04-21 14:56 -22.74051 -46.65586 29915 ft 450 kts 294°
2026-04-21 14:57 -22.72676 -46.68657 30330 ft 452 kts 294°
2026-04-21 14:57 -22.71309 -46.71704 30785 ft 452 kts 294°
2026-04-21 14:57 -22.69947 -46.74739 31360 ft 449 kts 294°
2026-04-21 14:57 -22.68594 -46.77749 31960 ft 445 kts 294°
2026-04-21 14:58 -22.67236 -46.80764 32537 ft 441 kts 294°
2026-04-21 14:58 -22.65904 -46.83722 33122 ft 437 kts 293°
2026-04-21 14:58 -22.64580 -46.86656 33727 ft 433 kts 293°
2026-04-21 14:58 -22.63256 -46.89588 34149 ft 433 kts 292°
2026-04-21 14:59 -22.61930 -46.92528 34154 ft 437 kts 293°
2026-04-21 14:59 -22.59284 -46.98392 34144 ft 434 kts 292°
2026-04-21 15:00 -22.56630 -47.04291 34139 ft 434 kts 292°
2026-04-21 15:00 -22.54457 -47.10326 34139 ft 430 kts 284°
2026-04-21 15:01 -22.52806 -47.16571 34139 ft 432 kts 282°
2026-04-21 15:01 -22.51281 -47.22848 34137 ft 430 kts 282°
2026-04-21 15:02 -22.49756 -47.29119 34134 ft 429 kts 282°
2026-04-21 15:02 -22.48230 -47.35317 34137 ft 428 kts 282°
2026-04-21 15:03 -22.46692 -47.41509 34139 ft 427 kts 282°
2026-04-21 15:03 -22.45070 -47.47716 34146 ft 429 kts 285°
2026-04-21 15:04 -22.42652 -47.53636 34147 ft 434 kts 297°
2026-04-21 15:04 -22.39044 -47.58886 34150 ft 441 kts 309°
2026-04-21 15:05 -22.34404 -47.63235 34153 ft 444 kts 320°
2026-04-21 15:05 -22.26683 -47.68780 34158 ft 445 kts 323°
2026-04-21 15:06 -22.21482 -47.72480 34164 ft 446 kts 323°
2026-04-21 15:06 -22.16342 -47.76216 34163 ft 445 kts 322°
2026-04-21 15:07 -22.11235 -47.79980 34153 ft 445 kts 322°
2026-04-21 15:07 -22.06161 -47.83744 34143 ft 446 kts 322°
2026-04-21 15:08 -22.01035 -47.87556 34139 ft 444 kts 322°
2026-04-21 15:08 -21.95964 -47.91328 34137 ft 445 kts 322°
2026-04-21 15:09 -21.90858 -47.95121 34134 ft 445 kts 322°
2026-04-21 15:09 -21.85736 -47.98922 34125 ft 446 kts 322°
2026-04-21 15:10 -21.80611 -48.02723 34119 ft 447 kts 322°
2026-04-21 15:10 -21.75515 -48.06531 34121 ft 445 kts 322°
2026-04-21 15:11 -21.70433 -48.10412 34119 ft 448 kts 321°
2026-04-21 15:11 -21.65366 -48.14296 34121 ft 447 kts 321°
2026-04-21 15:12 -21.60298 -48.18172 34119 ft 447 kts 321°
2026-04-21 15:12 -21.55209 -48.22056 34118 ft 448 kts 322°
2026-04-21 15:13 -21.50117 -48.25933 34118 ft 448 kts 322°
2026-04-21 15:13 -21.45041 -48.29791 34115 ft 447 kts 321°
2026-04-21 15:14 -21.39923 -48.33676 34115 ft 447 kts 322°
2026-04-21 15:14 -21.34829 -48.37539 34114 ft 448 kts 322°
2026-04-21 15:15 -21.29746 -48.41391 34114 ft 448 kts 322°
2026-04-21 15:15 -21.24636 -48.45262 34115 ft 450 kts 322°
2026-04-21 15:16 -21.19530 -48.49125 34116 ft 449 kts 322°
2026-04-21 15:16 -21.14432 -48.52979 34116 ft 450 kts 322°
2026-04-21 15:17 -21.09307 -48.56850 34113 ft 450 kts 322°
2026-04-21 15:17 -21.04215 -48.60693 34110 ft 449 kts 322°
2026-04-21 15:18 -20.99071 -48.64573 34106 ft 450 kts 322°
2026-04-21 15:18 -20.93952 -48.68430 34105 ft 451 kts 322°
2026-04-21 15:19 -20.88806 -48.72303 34099 ft 450 kts 322°
2026-04-21 15:19 -20.83672 -48.76163 34097 ft 450 kts 322°
2026-04-21 15:20 -20.78544 -48.80016 34097 ft 451 kts 322°
2026-04-21 15:20 -20.73391 -48.83887 34091 ft 450 kts 322°
2026-04-21 15:21 -20.68237 -48.87754 34085 ft 452 kts 322°
2026-04-21 15:21 -20.63084 -48.91617 34079 ft 451 kts 322°
2026-04-21 15:22 -20.57975 -48.95443 34078 ft 451 kts 322°
2026-04-21 15:22 -20.52801 -48.99315 34076 ft 452 kts 322°
2026-04-21 15:23 -20.47671 -49.03150 34075 ft 451 kts 322°
2026-04-21 15:23 -20.42489 -49.07023 34073 ft 451 kts 323°
2026-04-21 15:24 -20.37346 -49.10862 34071 ft 451 kts 323°
2026-04-21 15:24 -20.32184 -49.14710 34070 ft 453 kts 322°
2026-04-21 15:25 -20.27011 -49.18565 34068 ft 452 kts 323°
2026-04-21 15:25 -20.21846 -49.22412 34063 ft 453 kts 323°
2026-04-21 15:26 -20.16663 -49.26268 34063 ft 453 kts 323°
2026-04-21 15:26 -20.11463 -49.30133 34060 ft 454 kts 323°
2026-04-21 15:27 -20.06305 -49.33964 34060 ft 453 kts 323°
2026-04-21 15:27 -20.01112 -49.37817 34057 ft 453 kts 323°
2026-04-21 15:28 -19.95943 -49.41650 34059 ft 454 kts 323°
2026-04-21 15:28 -19.90768 -49.45484 34061 ft 453 kts 323°
2026-04-21 15:29 -19.85580 -49.49326 34062 ft 454 kts 323°
2026-04-21 15:29 -19.80367 -49.53182 34059 ft 454 kts 323°
2026-04-21 15:30 -19.75163 -49.57028 34062 ft 455 kts 323°
2026-04-21 15:30 -19.69978 -49.60856 34062 ft 455 kts 323°
2026-04-21 15:31 -19.64776 -49.64695 34063 ft 456 kts 323°
2026-04-21 15:31 -19.59527 -49.68565 34068 ft 456 kts 323°
2026-04-21 15:32 -19.54331 -49.72392 34072 ft 455 kts 323°
2026-04-21 15:32 -19.49128 -49.76223 34078 ft 455 kts 323°
2026-04-21 15:33 -19.43927 -49.80049 34080 ft 456 kts 323°
2026-04-21 15:33 -19.38697 -49.83893 34084 ft 456 kts 323°
2026-04-21 15:34 -19.33470 -49.87727 34075 ft 457 kts 324°
2026-04-21 15:34 -19.28177 -49.91517 34072 ft 458 kts 324°
2026-04-21 15:35 -19.22878 -49.95251 34071 ft 457 kts 325°
2026-04-21 15:35 -19.17557 -49.98998 34067 ft 458 kts 325°
2026-04-21 15:36 -19.12281 -50.02719 34061 ft 459 kts 324°
2026-04-21 15:36 -19.06970 -50.06469 34053 ft 458 kts 324°
2026-04-21 15:37 -19.01636 -50.10235 34050 ft 459 kts 324°
2026-04-21 15:37 -18.96309 -50.13995 34048 ft 460 kts 324°
2026-04-21 15:38 -18.90995 -50.17742 34047 ft 459 kts 324°
2026-04-21 15:38 -18.85635 -50.21521 34045 ft 460 kts 324°
2026-04-21 15:39 -18.80320 -50.25263 34044 ft 459 kts 324°
2026-04-21 15:39 -18.74985 -50.29017 34046 ft 459 kts 324°
2026-04-21 15:40 -18.69646 -50.32771 34046 ft 460 kts 324°
2026-04-21 15:40 -18.64337 -50.36500 34047 ft 460 kts 324°
2026-04-21 15:41 -18.58954 -50.40279 34049 ft 460 kts 324°
2026-04-21 15:41 -18.53645 -50.44004 34051 ft 461 kts 324°
2026-04-21 15:42 -18.48278 -50.47766 34054 ft 461 kts 324°
2026-04-21 15:42 -18.42913 -50.51524 34061 ft 460 kts 325°
2026-04-21 15:43 -18.37546 -50.55280 34070 ft 461 kts 325°
2026-04-21 15:43 -18.32223 -50.59003 34081 ft 460 kts 325°
2026-04-21 15:44 -18.26854 -50.62754 34092 ft 462 kts 325°
2026-04-21 15:44 -18.21512 -50.66483 34098 ft 461 kts 325°
2026-04-21 15:45 -18.16148 -50.70226 34099 ft 462 kts 325°
2026-04-21 15:45 -18.10812 -50.73947 34099 ft 462 kts 325°
2026-04-21 15:46 -18.05446 -50.77684 34101 ft 463 kts 325°
2026-04-21 15:46 -18.00071 -50.81426 34106 ft 462 kts 325°
2026-04-21 15:47 -17.94818 -50.85080 34113 ft 463 kts 325°
2026-04-21 15:47 -17.89464 -50.88802 34109 ft 462 kts 325°
2026-04-21 15:48 -17.84077 -50.92543 34118 ft 463 kts 325°
2026-04-21 15:48 -17.78663 -50.96303 34123 ft 464 kts 325°
2026-04-21 15:49 -17.73289 -51.00030 34128 ft 462 kts 325°
2026-04-21 15:49 -17.67922 -51.03751 34126 ft 463 kts 325°
2026-04-21 15:50 -17.62527 -51.07486 34129 ft 463 kts 325°
2026-04-21 15:50 -17.57270 -51.11125 34130 ft 463 kts 325°
2026-04-21 15:51 -17.51892 -51.14845 34130 ft 463 kts 325°
2026-04-21 15:51 -17.46515 -51.18562 34132 ft 462 kts 325°
2026-04-21 15:52 -17.41139 -51.22275 34131 ft 464 kts 325°
2026-04-21 15:52 -17.35757 -51.25988 34130 ft 462 kts 325°
2026-04-21 15:53 -17.30344 -51.29720 34130 ft 464 kts 325°
2026-04-21 15:53 -17.24965 -51.33426 34134 ft 463 kts 325°
2026-04-21 15:54 -17.19538 -51.37162 34127 ft 464 kts 325°
2026-04-21 15:54 -17.14162 -51.40862 34120 ft 463 kts 325°
2026-04-21 15:55 -17.08763 -51.44577 34111 ft 465 kts 325°
2026-04-21 15:55 -17.03329 -51.48311 34101 ft 464 kts 325°
2026-04-21 15:56 -16.97960 -51.51997 34083 ft 465 kts 325°
2026-04-21 15:56 -16.92505 -51.55740 34077 ft 466 kts 325°
2026-04-21 15:57 -16.87078 -51.59462 34073 ft 463 kts 325°
2026-04-21 15:57 -16.81658 -51.63175 34071 ft 465 kts 325°
2026-04-21 15:58 -16.76239 -51.66886 34067 ft 465 kts 325°
2026-04-21 15:58 -16.70829 -51.70588 34064 ft 466 kts 325°
2026-04-21 15:59 -16.65375 -51.74318 34060 ft 465 kts 325°
2026-04-21 15:59 -16.59942 -51.78029 34056 ft 465 kts 325°
2026-04-21 16:00 -16.54539 -51.81718 34052 ft 466 kts 325°
2026-04-21 16:00 -16.49073 -51.85448 34056 ft 466 kts 325°
2026-04-21 16:01 -16.43601 -51.89179 34047 ft 466 kts 325°
2026-04-21 16:01 -16.38175 -51.92876 34043 ft 467 kts 325°
2026-04-21 16:02 -16.32723 -51.96589 34038 ft 468 kts 325°
2026-04-21 16:02 -16.27234 -52.00325 34027 ft 468 kts 325°
2026-04-21 16:03 -16.21800 -52.04020 34025 ft 468 kts 325°
2026-04-21 16:03 -16.16337 -52.07732 34026 ft 468 kts 325°
2026-04-21 16:04 -16.10862 -52.11451 34023 ft 467 kts 325°
2026-04-21 16:04 -16.05403 -52.15155 34023 ft 467 kts 325°
2026-04-21 16:05 -15.99986 -52.18829 34017 ft 467 kts 325°
2026-04-21 16:05 -15.94502 -52.22545 34016 ft 468 kts 325°
2026-04-21 16:06 -15.89050 -52.26238 34013 ft 468 kts 324°
2026-04-21 16:06 -15.83581 -52.29941 34019 ft 468 kts 324°
2026-04-21 16:07 -15.78110 -52.33641 34025 ft 468 kts 324°
2026-04-21 16:07 -15.72623 -52.37351 34029 ft 469 kts 324°
2026-04-21 16:08 -15.64405 -52.42902 34027 ft 467 kts 324°
2026-04-21 16:09 -15.58921 -52.46604 34030 ft 468 kts 324°
2026-04-21 16:09 -15.53460 -52.50288 34030 ft 469 kts 324°
2026-04-21 16:10 -15.47991 -52.53973 34028 ft 469 kts 324°
2026-04-21 16:10 -15.42477 -52.57687 34024 ft 468 kts 324°
2026-04-21 16:11 -15.36998 -52.61376 34023 ft 468 kts 324°
2026-04-21 16:11 -15.31529 -52.65054 34021 ft 469 kts 325°
2026-04-21 16:12 -15.25972 -52.68790 34019 ft 469 kts 325°
2026-04-21 16:12 -15.20507 -52.72461 34017 ft 469 kts 325°
2026-04-21 16:13 -15.15041 -52.76131 34014 ft 469 kts 325°
2026-04-21 16:13 -15.09546 -52.79819 34015 ft 468 kts 325°
2026-04-21 16:14 -15.04074 -52.83488 34015 ft 469 kts 325°
2026-04-21 16:14 -14.98557 -52.87186 34018 ft 469 kts 325°
2026-04-21 16:15 -14.93122 -52.90826 34020 ft 468 kts 325°
2026-04-21 16:15 -14.87625 -52.94505 34023 ft 468 kts 325°
2026-04-21 16:16 -14.82114 -52.98193 34027 ft 468 kts 325°
2026-04-21 16:16 -14.76640 -53.01854 34030 ft 468 kts 325°
2026-04-21 16:17 -14.71139 -53.05529 34031 ft 468 kts 325°
2026-04-21 16:17 -14.65669 -53.09180 34036 ft 468 kts 325°
2026-04-21 16:18 -14.60205 -53.12826 34036 ft 468 kts 325°
2026-04-21 16:18 -14.54705 -53.16494 34037 ft 467 kts 325°
2026-04-21 16:19 -14.49194 -53.20167 34037 ft 467 kts 325°
2026-04-21 16:19 -14.43750 -53.23793 34041 ft 467 kts 325°
2026-04-21 16:20 -14.38263 -53.27445 34037 ft 467 kts 325°
2026-04-21 16:20 -14.32791 -53.31085 34036 ft 466 kts 325°
2026-04-21 16:21 -14.27336 -53.34712 34031 ft 466 kts 325°
2026-04-21 16:21 -14.21868 -53.38345 34025 ft 466 kts 325°
2026-04-21 16:22 -14.16398 -53.41978 34019 ft 465 kts 325°
2026-04-21 16:22 -14.10951 -53.45593 34011 ft 463 kts 325°
2026-04-21 16:23 -14.05543 -53.49180 34004 ft 463 kts 325°
2026-04-21 16:23 -14.00087 -53.52797 34000 ft 464 kts 325°
2026-04-21 16:24 -13.94659 -53.56394 34002 ft 463 kts 325°
2026-04-21 16:24 -13.89193 -53.60012 33999 ft 463 kts 325°
2026-04-21 16:25 -13.83741 -53.63617 34002 ft 464 kts 325°
2026-04-21 16:25 -13.78299 -53.67211 34001 ft 464 kts 326°
2026-04-21 16:26 -13.72860 -53.70804 34008 ft 463 kts 326°
2026-04-21 16:26 -13.67444 -53.74378 34002 ft 464 kts 326°
2026-04-21 16:27 -13.62013 -53.77961 33997 ft 463 kts 326°
2026-04-21 16:27 -13.56570 -53.81549 33986 ft 463 kts 326°
2026-04-21 16:28 -13.51160 -53.85114 33979 ft 462 kts 326°
2026-04-21 16:28 -13.45688 -53.88720 33982 ft 464 kts 326°
2026-04-21 16:29 -13.40266 -53.92288 33975 ft 462 kts 326°
2026-04-21 16:29 -13.34870 -53.95837 33965 ft 461 kts 326°
2026-04-21 16:30 -13.29407 -53.99429 33965 ft 462 kts 326°
2026-04-21 16:30 -13.24011 -54.02975 33958 ft 462 kts 326°
2026-04-21 16:31 -13.18596 -54.06532 33958 ft 461 kts 326°
2026-04-21 16:31 -13.13168 -54.10096 33957 ft 462 kts 326°
2026-04-21 16:32 -13.07734 -54.13660 33955 ft 461 kts 326°
2026-04-21 16:32 -13.02324 -54.17208 33954 ft 461 kts 326°
2026-04-21 16:33 -12.96898 -54.20764 33963 ft 460 kts 326°
2026-04-21 16:33 -12.91505 -54.24297 33968 ft 460 kts 326°
2026-04-21 16:34 -12.86108 -54.27831 33970 ft 459 kts 326°
2026-04-21 16:34 -12.80728 -54.31351 33967 ft 460 kts 326°
2026-04-21 16:35 -12.75324 -54.34886 33967 ft 459 kts 326°
2026-04-21 16:35 -12.69929 -54.38413 33967 ft 460 kts 326°
2026-04-21 16:36 -12.64512 -54.41952 33965 ft 459 kts 326°
2026-04-21 16:36 -12.59122 -54.45472 33964 ft 460 kts 326°
2026-04-21 16:37 -12.53716 -54.49001 33963 ft 459 kts 326°
2026-04-21 16:37 -12.48332 -54.52515 33962 ft 459 kts 326°
2026-04-21 16:38 -12.42940 -54.56030 33962 ft 459 kts 326°
2026-04-21 16:38 -12.37539 -54.59549 33964 ft 459 kts 326°
2026-04-21 16:39 -12.32118 -54.63081 33967 ft 459 kts 326°
2026-04-21 16:39 -12.26725 -54.66592 33969 ft 459 kts 327°
2026-04-21 16:40 -12.21307 -54.70118 33974 ft 459 kts 327°
2026-04-21 16:40 -12.15915 -54.73626 33981 ft 460 kts 327°
2026-04-21 16:41 -12.10520 -54.77134 33986 ft 460 kts 327°
2026-04-21 16:41 -12.05121 -54.80643 33986 ft 459 kts 327°
2026-04-21 16:42 -11.99727 -54.84148 33988 ft 459 kts 327°
2026-04-21 16:42 -11.94307 -54.87665 33982 ft 459 kts 327°
2026-04-21 16:43 -11.88937 -54.91146 33978 ft 458 kts 327°
2026-04-21 16:43 -11.83532 -54.94652 33976 ft 458 kts 327°
2026-04-21 16:44 -11.78424 -54.97964 33974 ft 458 kts 327°
2026-04-21 16:44 -11.73055 -55.01444 33973 ft 459 kts 327°
2026-04-21 16:45 -11.67652 -55.04942 33974 ft 458 kts 327°
2026-04-21 16:45 -11.62236 -55.08449 33972 ft 459 kts 327°
2026-04-21 16:46 -11.56860 -55.11927 33974 ft 458 kts 327°
2026-04-21 16:46 -11.51474 -55.15409 33976 ft 457 kts 327°
2026-04-21 16:47 -11.46086 -55.18891 33978 ft 457 kts 327°
2026-04-21 16:47 -11.40692 -55.22377 33978 ft 458 kts 328°
2026-04-21 16:48 -11.35313 -55.25849 33974 ft 457 kts 328°
2026-04-21 16:48 -11.29926 -55.29327 33965 ft 458 kts 328°
2026-04-21 16:49 -11.24569 -55.32784 33958 ft 457 kts 328°
2026-04-21 16:49 -11.19160 -55.36272 33953 ft 456 kts 328°
2026-04-21 16:50 -11.13803 -55.39726 33955 ft 458 kts 328°
2026-04-21 16:50 -11.08414 -55.43198 33952 ft 456 kts 328°
2026-04-21 16:51 -11.03032 -55.46664 33948 ft 456 kts 328°
2026-04-21 16:51 -10.97670 -55.50116 33949 ft 456 kts 328°
2026-04-21 16:52 -10.92292 -55.53577 33951 ft 457 kts 328°
2026-04-21 16:52 -10.86903 -55.57043 33959 ft 456 kts 328°
2026-04-21 16:53 -10.81528 -55.60498 33961 ft 456 kts 328°
2026-04-21 16:53 -10.76156 -55.63952 33967 ft 456 kts 328°
2026-04-21 16:54 -10.70802 -55.67392 33967 ft 455 kts 328°
2026-04-21 16:54 -10.65437 -55.70837 33967 ft 455 kts 328°
2026-04-21 16:55 -10.60085 -55.74272 33962 ft 455 kts 328°
2026-04-21 16:55 -10.54749 -55.77696 33953 ft 454 kts 328°
2026-04-21 16:56 -10.49387 -55.81135 33949 ft 454 kts 328°
2026-04-21 16:56 -10.44020 -55.84575 33942 ft 454 kts 328°
2026-04-21 16:57 -10.38663 -55.88008 33943 ft 453 kts 328°
2026-04-21 16:57 -10.33345 -55.91415 33944 ft 451 kts 329°
2026-04-21 16:58 -10.28003 -55.94836 33943 ft 451 kts 328°
2026-04-21 16:58 -10.22708 -55.98225 33948 ft 450 kts 328°
2026-04-21 16:59 -10.17357 -56.01647 33956 ft 451 kts 328°
2026-04-21 16:59 -10.12064 -56.05032 33958 ft 451 kts 328°
2026-04-21 17:00 -10.06736 -56.08438 33960 ft 450 kts 328°
2026-04-21 17:00 -10.02312 -56.11265 33963 ft 450 kts 329°
2026-04-21 17:01 -9.96117 -56.15223 33968 ft 449 kts 329°
2026-04-21 17:01 -9.90826 -56.18604 33960 ft 449 kts 329°
2026-04-21 17:02 -9.85542 -56.21975 33961 ft 450 kts 329°
2026-04-21 17:02 -9.80226 -56.25365 33954 ft 451 kts 329°
2026-04-21 17:03 -9.74900 -56.28762 33945 ft 451 kts 329°
2026-04-21 17:03 -9.69594 -56.32161 33938 ft 451 kts 328°
2026-04-21 17:04 -9.64324 -56.35627 33932 ft 451 kts 328°
2026-04-21 17:04 -9.59066 -56.39114 33932 ft 450 kts 328°
2026-04-21 17:05 -9.53794 -56.42606 33927 ft 450 kts 328°
2026-04-21 17:05 -9.48566 -56.46059 33925 ft 451 kts 328°
2026-04-21 17:06 -9.43299 -56.49532 33926 ft 450 kts 328°
2026-04-21 17:06 -9.38024 -56.53006 33928 ft 451 kts 328°
2026-04-21 17:07 -9.32738 -56.56486 33928 ft 450 kts 328°
2026-04-21 17:07 -9.27502 -56.59932 33930 ft 450 kts 328°
2026-04-21 17:08 -9.22211 -56.63413 33934 ft 449 kts 328°
2026-04-21 17:08 -9.16973 -56.66857 33937 ft 448 kts 329°
2026-04-21 17:09 -9.09092 -56.72037 33937 ft 450 kts 329°
2026-04-21 17:09 -9.03866 -56.75470 33935 ft 449 kts 329°
2026-04-21 17:10 -8.98591 -56.78935 33937 ft 449 kts 329°
2026-04-21 17:10 -8.93379 -56.82356 33935 ft 448 kts 329°
2026-04-21 17:11 -8.88108 -56.85815 33934 ft 448 kts 329°
2026-04-21 17:11 -8.82894 -56.89237 33935 ft 449 kts 329°
2026-04-21 17:12 -8.77629 -56.92690 33935 ft 449 kts 329°
2026-04-21 17:12 -8.72385 -56.96128 33935 ft 450 kts 329°
2026-04-21 17:13 -8.67121 -56.99578 33930 ft 450 kts 329°
2026-04-21 17:13 -8.61850 -57.03032 33931 ft 450 kts 329°
2026-04-21 17:14 -8.56603 -57.06470 33936 ft 449 kts 329°
2026-04-21 17:14 -8.51332 -57.09921 33939 ft 449 kts 329°
2026-04-21 17:15 -8.46060 -57.13370 33940 ft 450 kts 329°
2026-04-21 17:15 -8.40779 -57.16825 33946 ft 450 kts 329°
2026-04-21 17:16 -8.35539 -57.20253 33949 ft 451 kts 329°
2026-04-21 17:16 -8.30244 -57.23715 33951 ft 451 kts 329°
2026-04-21 17:17 -8.24974 -57.27161 33952 ft 450 kts 329°
2026-04-21 17:17 -8.19687 -57.30614 33946 ft 451 kts 329°
2026-04-21 17:18 -8.14406 -57.34061 33940 ft 452 kts 329°
2026-04-21 17:18 -8.09103 -57.37523 33932 ft 452 kts 329°
2026-04-21 17:19 -8.03799 -57.40985 33915 ft 453 kts 329°
2026-04-21 17:19 -7.98509 -57.44437 33910 ft 454 kts 329°
2026-04-21 17:20 -7.93203 -57.47898 33907 ft 453 kts 329°
2026-04-21 17:20 -7.87897 -57.51360 33904 ft 453 kts 329°
2026-04-21 17:21 -7.82572 -57.54831 33907 ft 453 kts 329°
2026-04-21 17:21 -7.77267 -57.58288 33906 ft 453 kts 329°
2026-04-21 17:22 -7.71965 -57.61744 33905 ft 453 kts 329°
2026-04-21 17:22 -7.66671 -57.65193 33907 ft 454 kts 329°
2026-04-21 17:23 -7.61332 -57.68669 33904 ft 454 kts 329°
2026-04-21 17:23 -7.56020 -57.72127 33903 ft 453 kts 329°
2026-04-21 17:24 -7.50731 -57.75568 33902 ft 453 kts 329°
2026-04-21 17:24 -7.45422 -57.79022 33905 ft 454 kts 329°
2026-04-21 17:25 -7.40092 -57.82489 33906 ft 454 kts 329°
2026-04-21 17:25 -7.34776 -57.85946 33908 ft 454 kts 329°
2026-04-21 17:26 -7.29433 -57.89421 33907 ft 454 kts 329°
2026-04-21 17:26 -7.24111 -57.92879 33906 ft 452 kts 329°
2026-04-21 17:27 -7.18825 -57.96312 33905 ft 453 kts 329°
2026-04-21 17:27 -7.13521 -57.99756 33901 ft 452 kts 329°
2026-04-21 17:28 -7.08227 -58.03193 33901 ft 454 kts 329°
2026-04-21 17:28 -7.02883 -58.06663 33900 ft 453 kts 329°
2026-04-21 17:29 -6.97578 -58.10107 33903 ft 453 kts 329°
2026-04-21 17:29 -6.92293 -58.13535 33899 ft 453 kts 329°
2026-04-21 17:30 -6.86971 -58.16986 33892 ft 452 kts 329°
2026-04-21 17:30 -6.81700 -58.20404 33888 ft 452 kts 329°
2026-04-21 17:31 -6.76372 -58.23857 33887 ft 452 kts 329°
2026-04-21 17:31 -6.71097 -58.27275 33885 ft 452 kts 329°
2026-04-21 17:32 -6.65785 -58.30715 33886 ft 452 kts 329°
2026-04-21 17:32 -6.60495 -58.34141 33889 ft 451 kts 329°
2026-04-21 17:33 -6.55227 -58.37552 33892 ft 453 kts 329°
2026-04-21 17:33 -6.49901 -58.41000 33895 ft 453 kts 329°
2026-04-21 17:34 -6.44597 -58.44433 33895 ft 452 kts 329°
2026-04-21 17:34 -6.39309 -58.47855 33895 ft 450 kts 329°
2026-04-21 17:35 -6.34025 -58.51273 33895 ft 451 kts 329°
2026-04-21 17:35 -6.28763 -58.54675 33892 ft 450 kts 329°
2026-04-21 17:36 -6.23467 -58.58099 33888 ft 451 kts 329°
2026-04-21 17:36 -6.18161 -58.61528 33885 ft 451 kts 329°
2026-04-21 17:37 -6.12874 -58.64944 33882 ft 452 kts 329°
2026-04-21 17:37 -6.07566 -58.68373 33880 ft 452 kts 329°
2026-04-21 17:38 -6.02252 -58.71806 33879 ft 452 kts 329°
2026-04-21 17:38 -5.96956 -58.75226 33878 ft 451 kts 329°
2026-04-21 17:39 -5.91673 -58.78636 33875 ft 453 kts 330°
2026-04-21 17:39 -5.86383 -58.82051 33876 ft 451 kts 330°
2026-04-21 17:40 -5.81031 -58.85504 33875 ft 454 kts 330°
2026-04-21 17:40 -5.75714 -58.88933 33872 ft 453 kts 329°
2026-04-21 17:41 -5.70431 -58.92341 33871 ft 452 kts 329°
2026-04-21 17:41 -5.65121 -58.95764 33874 ft 453 kts 329°
2026-04-21 17:42 -5.59801 -58.99194 33868 ft 453 kts 329°
2026-04-21 17:42 -5.54460 -59.02638 33872 ft 453 kts 329°
2026-04-21 17:43 -5.49157 -59.06054 33868 ft 452 kts 330°
2026-04-21 17:43 -5.43867 -59.09463 33864 ft 453 kts 329°
2026-04-21 17:44 -5.38539 -59.12895 33858 ft 452 kts 329°
2026-04-21 17:44 -5.33237 -59.16310 33857 ft 452 kts 329°
2026-04-21 17:45 -5.27918 -59.19735 33854 ft 452 kts 329°
2026-04-21 17:45 -5.22620 -59.23145 33853 ft 451 kts 329°
2026-04-21 17:46 -5.17314 -59.26561 33853 ft 451 kts 329°
2026-04-21 17:46 -5.12010 -59.29973 33852 ft 452 kts 329°
2026-04-21 17:47 -5.06699 -59.33390 33852 ft 451 kts 329°
2026-04-21 17:47 -5.01376 -59.36813 33852 ft 452 kts 329°
2026-04-21 17:48 -4.96127 -59.40190 33848 ft 444 kts 329°
2026-04-21 17:48 -4.93554 -59.41848 33849 ft 433 kts 329°
2026-04-21 17:48 -4.91010 -59.43486 33857 ft 432 kts 330°
2026-04-21 17:49 -4.85905 -59.46765 33864 ft 437 kts 329°
2026-04-21 17:49 -4.80769 -59.50064 33869 ft 435 kts 329°
2026-04-21 17:50 -4.75622 -59.53369 33870 ft 438 kts 329°
2026-04-21 17:50 -4.70482 -59.56672 33870 ft 437 kts 329°
2026-04-21 17:51 -4.65343 -59.59972 33868 ft 438 kts 329°
2026-04-21 17:51 -4.60213 -59.63269 33863 ft 437 kts 330°
2026-04-21 17:52 -4.55093 -59.66555 33865 ft 438 kts 330°
2026-04-21 17:52 -4.49959 -59.69853 33620 ft 437 kts 330°
2026-04-21 17:53 -4.47393 -59.71499 32660 ft 445 kts 329°
2026-04-21 17:53 -4.44777 -59.73176 31775 ft 451 kts 330°
2026-04-21 17:53 -4.42122 -59.74881 30885 ft 456 kts 329°
2026-04-21 17:53 -4.39415 -59.76620 29985 ft 461 kts 329°
2026-04-21 17:54 -4.36730 -59.78343 29107 ft 465 kts 330°
2026-04-21 17:54 -4.33967 -59.80114 28223 ft 468 kts 330°
2026-04-21 17:54 -4.31230 -59.81869 27364 ft 471 kts 329°
2026-04-21 17:54 -4.28484 -59.83630 26508 ft 473 kts 329°
2026-04-21 17:55 -4.25707 -59.85412 25642 ft 474 kts 329°
2026-04-21 17:55 -4.22902 -59.87210 24774 ft 475 kts 329°
2026-04-21 17:55 -4.20127 -59.88990 23918 ft 475 kts 329°
2026-04-21 17:55 -4.17357 -59.90767 23065 ft 475 kts 329°
2026-04-21 17:56 -4.14574 -59.92547 22466 ft 467 kts 329°
2026-04-21 17:56 -4.11845 -59.94233 21983 ft 458 kts 331°
2026-04-21 17:56 -4.09036 -59.95706 21450 ft 449 kts 337°
2026-04-21 17:56 -4.06172 -59.96849 20912 ft 441 kts 342°
2026-04-21 17:57 -4.03257 -59.97802 20367 ft 435 kts 345°
2026-04-21 17:57 -4.00388 -59.98644 19838 ft 429 kts 346°
2026-04-21 17:57 -3.97523 -59.99451 19305 ft 423 kts 346°
2026-04-21 17:57 -3.94671 -60.00248 18775 ft 418 kts 346°
2026-04-21 17:58 -3.91896 -60.01028 18260 ft 412 kts 346°
2026-04-21 17:58 -3.89153 -60.01807 17749 ft 407 kts 346°
2026-04-21 17:58 -3.86432 -60.02593 17249 ft 402 kts 345°
2026-04-21 17:58 -3.83750 -60.03377 16757 ft 397 kts 345°
2026-04-21 17:59 -3.81114 -60.04158 16266 ft 392 kts 345°
2026-04-21 17:59 -3.78503 -60.04935 15781 ft 387 kts 345°
2026-04-21 17:59 -3.75957 -60.05696 15307 ft 382 kts 345°
2026-04-21 17:59 -3.73384 -60.06467 14828 ft 377 kts 344°
2026-04-21 18:00 -3.70895 -60.07213 14362 ft 372 kts 344°
2026-04-21 18:00 -3.68408 -60.07958 13898 ft 368 kts 344°
2026-04-21 18:00 -3.65966 -60.08690 13441 ft 363 kts 344°
2026-04-21 18:00 -3.63574 -60.09405 12990 ft 359 kts 343°
2026-04-21 18:01 -3.61170 -60.10124 12508 ft 353 kts 343°
2026-04-21 18:01 -3.58867 -60.10813 12098 ft 337 kts 343°
2026-04-21 18:01 -3.56651 -60.11477 11685 ft 323 kts 343°
2026-04-21 18:01 -3.54536 -60.12111 11285 ft 311 kts 343°
2026-04-21 18:02 -3.52479 -60.12728 10904 ft 300 kts 343°
2026-04-21 18:02 -3.50523 -60.13314 10540 ft 290 kts 343°
2026-04-21 18:02 -3.48578 -60.13896 10161 ft 289 kts 344°
2026-04-21 18:02 -3.46668 -60.14468 9811 ft 287 kts 344°
2026-04-21 18:03 -3.44786 -60.15031 9588 ft 281 kts 344°
2026-04-21 18:03 -3.42900 -60.15595 9228 ft 280 kts 344°
2026-04-21 18:03 -3.41006 -60.16162 8880 ft 279 kts 344°
2026-04-21 18:03 -3.39158 -60.16715 8547 ft 278 kts 344°
2026-04-21 18:04 -3.37286 -60.17275 8200 ft 277 kts 344°
2026-04-21 18:04 -3.35435 -60.17829 7897 ft 275 kts 345°
2026-04-21 18:04 -3.33621 -60.18372 7601 ft 272 kts 345°
2026-04-21 18:04 -3.31799 -60.18917 7272 ft 271 kts 345°
2026-04-21 18:05 -3.29993 -60.19457 6934 ft 270 kts 345°
2026-04-21 18:05 -3.28174 -60.20001 6589 ft 269 kts 345°
2026-04-21 18:05 -3.26368 -60.20541 6262 ft 268 kts 345°
2026-04-21 18:05 -3.24581 -60.21053 5932 ft 267 kts 348°
2026-04-21 18:06 -3.22767 -60.21440 5593 ft 266 kts 352°
2026-04-21 18:06 -3.20926 -60.21742 5224 ft 267 kts 353°
2026-04-21 18:06 -3.19080 -60.22023 4983 ft 262 kts 353°
2026-04-21 18:06 -3.17307 -60.22303 4847 ft 253 kts 352°
2026-04-21 18:07 -3.15579 -60.22586 4682 ft 247 kts 353°
2026-04-21 18:07 -3.13914 -60.22842 4470 ft 240 kts 357°
2026-04-21 18:07 -3.12270 -60.22919 4192 ft 232 kts
2026-04-21 18:07 -3.10653 -60.22899 3842 ft 229 kts
2026-04-21 18:08 -3.09074 -60.22875 3561 ft 222 kts
2026-04-21 18:08 -3.07598 -60.22867 3334 ft 199 kts
2026-04-21 18:08 -3.06286 -60.22840 3174 ft 179 kts
2026-04-21 18:08 -3.05117 -60.22465 3032 ft 174 kts 37°
2026-04-21 18:09 -3.04316 -60.21605 2950 ft 170 kts 59°
2026-04-21 18:09 -3.03819 -60.20540 2948 ft 171 kts 75°
2026-04-21 18:09 -3.03751 -60.19348 2754 ft 174 kts 95°
2026-04-21 18:09 -3.03854 -60.18166 2498 ft 170 kts 90°
2026-04-21 18:10 -3.03847 -60.16985 2302 ft 170 kts 88°
2026-04-21 18:10 -3.03837 -60.15806 2063 ft 169 kts 89°
2026-04-21 18:10 -3.03849 -60.14678 1865 ft 156 kts 89°
2026-04-21 18:10 -3.03847 -60.13608 1642 ft 152 kts 89°
2026-04-21 18:11 -3.03847 -60.12557 1453 ft 152 kts 89°
2026-04-21 18:11 -3.03855 -60.11492 1259 ft 155 kts 89°
2026-04-21 18:11 -3.03852 -60.10455 1066 ft 143 kts 90°
2026-04-21 18:11 -3.03855 -60.09445 892 ft 147 kts 88°
2026-04-21 18:12 -3.03856 -60.08441 697 ft 144 kts 90°
2026-04-21 18:12 -3.03857 -60.07428 526 ft 147 kts 89°
2026-04-21 18:12 -3.03855 -60.06460 346 ft 150 kts 89°
2026-04-21 18:12 -3.03851 -60.05501 260 ft 147 kts 89°
2026-04-21 18:13 -3.03853 -60.04527 241 ft 124 kts 90°
2026-04-21 18:13 -3.03860 -60.03952 240 ft 37 kts 91°
2026-04-21 18:13 -3.03827 -60.03786 240 ft 21 kts 38°
2026-04-21 18:13 -3.03757 -60.03775 240 ft 0 kts 339°
2026-04-21 18:14 -3.03756 -60.03776 240 ft 0 kts 339°
2026-04-21 18:15 -3.03716 -60.03801 240 ft 12 kts 314°
2026-04-21 18:15 -3.03668 -60.03907 240 ft 21 kts 285°
2026-04-21 18:15 -3.03622 -60.04074 240 ft 27 kts 285°
2026-04-21 18:15 -3.03556 -60.04259 240 ft 27 kts 304°
2026-04-21 18:16 -3.03449 -60.04357 240 ft 19 kts 334°
2026-04-21 18:16 -3.03341 -60.04411 240 ft 15 kts 292°
2026-04-21 18:16 -3.03349 -60.04514 240 ft 14 kts 259°
2026-04-21 18:16 -3.03357 -60.04592 240 ft 5 kts 266°
2026-04-21 18:17 -3.03343 -60.04620 240 ft 4 kts 345°
2026-04-21 18:17 -3.03308 -60.04623 240 ft 4 kts 359°
2026-04-21 18:17 -3.03283 -60.04622 240 ft 1 kts
2026-04-21 18:17 -3.03280 -60.04622 240 ft 0 kts